Regional Weather Roundup
Issued by NWS New Orleans/Baton Rouge, LA

Home | Current Version | Previous Version | Graphics & Text | Print | Product List | Glossary On
Versions: 1 2 3 4 5 6 7 8 9 10 11 12 13 14 15 16 17 18 19 20 21 22 23 24 25 26 27 28 29 30 31 32 33 34 35 36 37 38 39 40 41 42 43 44 45 46 47 48 49 50
380
ASUS44 KLIX 251605
RWRLIX
NEW ORLEANS REGIONAL WEATHER ROUNDUP
NATIONAL WEATHER SERVICE NEW ORLEANS LA
1000 AM CST SUN JAN 25 2015

NOTE: "FAIR" INDICATES FEW OR NO CLOUDS BELOW 12,000 FEET WITH NO
      SIGNIFICANT WEATHER AND/OR OBSTRUCTIONS TO VISIBILITY.
      SKY/WX - SKY CONDITION AND SIGNIFICANT WEATHER.
      TMP - AIR TEMPERATURE.     DP    - DEWPOINT TEMPERATURE.
      RH  - RELATIVE HUMIDITY.   PRES  - PRESSURE.
      HI  - HEAT INDEX.          WCI   - WIND CHILL INDEX.

*  THESE STATIONS ARE NOT NWS OR FAA STATIONS AND ARE NOT UNDER
   NWS QUALITY CONTROL.

LAZ038-040-048-061>063-065>067-069-251700-
SOUTHEAST LOUISIANA

CITY           SKY/WX    TMP DP  RH WIND       PRES   REMARKS
N.O. AUDUBON   NOT AVBL
N.O. INTL ARPT MOSUNNY   57  43  59 SW13      30.03F
N.O. LAKEFRONT SUNNY     58  42  55 SW13      30.04F
N.O. DOWNTOWN*   N/A     55  41  58 SW8G16    30.04F
SLIDELL        SUNNY     56  42  59 SW8G18    30.02F
BATON ROUGE    SUNNY     57  43  59 SW9       30.01S
BOOTHVILLE     SUNNY     59  48  67 W10       30.07F
BELLE CHASSE   MOSUNNY   58  41  53 W14G20    30.04F
BOGALUSA*        N/A     55  43  64 W8        30.03S
GALLIANO*      SUNNY     60  49  67 MISG      30.05F
NEW ROADS*       N/A     55  43  63 S5        30.00F
GONZALES*        N/A     56  44  62 SW8       30.02F
HAMMOND*       SUNNY     57  43  58 SW7       30.03S
HOUMA*         SUNNY     61  48  63 SW12      30.04F
PORT FOURCHON* SUNNY     59  48  67 SW8G14    30.10S

$$

MSZ070-080>082-251700-
SOUTHERN MISSISSIPPI

CITY           SKY/WX    TMP DP  RH WIND       PRES   REMARKS
MCCOMB         SUNNY     51  40  65 SW10      29.98F
GULFPORT       SUNNY     54  44  69 SW9       30.02F
BILOXI         SUNNY     55  47  75 SW10      30.02F
PASCAGOULA     SUNNY     56  45  66 S10       30.03F
STENNIS ARPT*  SUNNY     55  41  58 SW9       30.03F

$$

COASTAL OBSERVATIONS
LAKE AND NEARSHORE STATIONS

STATION/POSITION TIME  TEMP    WIND        PRES    WAVE
                       AIR SEA DIR/SP/G            HT/PER
                 (UTC) (F)     (DEG/KT/KT) (MB)    (FT/S)
PASCAGOULA       1600   54     230/ 12/ 14 1016.8
WAVELAND YACHT   1600   55     230/  8/ 12 1015.9
GRAND ISLE       1600   57 56  240/  8/ 12 1018.4
SOUTHWEST PASS   1600   56 45  300/  4/  7 1018.6
NEW CANAL        1600   55 51  230/  8/ 13 1017.3
SHELL BEACH      1600   54 52  240/ 10/ 13 1017.2

OFFSHORE STATIONS

STATION/POSITION TIME  TEMP    WIND        PRES    WAVE
                       AIR SEA DIR/SP/G            HT/PER
                 (UTC) (F)     (DEG/KT/KT) (MB)    (FT/S)
64 S DAUPHIN ISL 1500   59 71  270/ 16/ 17 1018.4    4/ 7

$$




USA.gov is the U.S. government's official web portal to all federal, state and local government web resources and services.